Location: Twentynine Palms Airport
(34.1316°N, 115.9458°W)
Time: 20:22:49
(UTC-07:00)

Oscar 19 - Visible Passes

Search period start: 05 May 2015 00:00
Search period end: 15 May 2015 00:00
Orbit: 775 x 790 km, 98.5° (Epoch: 05 May)

Date Brightness Start Highest point End Pass type
(mag) Time Alt. Az. Time Alt. Az. Time Alt. Az.
05 May 13.0 01:23:20 10° NE 01:24:55 17° NE 01:24:55 17° NE visible
05 May 12.0 03:02:15 10° N 03:05:29 28° NW 03:05:29 28° NW visible
06 May 11.7 02:30:09 10° N 02:33:29 39° N 02:33:29 39° N visible
07 May 12.2 01:58:32 10° NNE 02:01:28 33° NE 02:01:28 33° NE visible
07 May 12.6 03:39:37 10° NNW 03:42:02 15° WNW 03:42:02 15° WNW visible
08 May 12.8 01:27:28 10° NE 01:29:27 19° ENE 01:29:27 19° ENE visible
08 May 12.0 03:06:38 10° N 03:10:02 27° NW 03:10:02 27° NW visible
09 May 11.6 02:34:26 10° N 02:38:01 42° NNW 02:38:01 42° NNW visible
10 May 11.9 02:02:45 10° NNE 02:06:00 38° NE 02:06:00 38° NE visible
10 May 12.7 03:44:13 10° NW 03:46:34 13° WNW 03:46:34 13° WNW visible
11 May 12.7 01:31:36 10° NE 01:33:59 22° ENE 01:33:59 22° ENE visible
11 May 12.0 03:11:00 10° NNW 03:14:33 26° NW 03:14:33 26° NW visible
12 May 13.3 01:01:30 10° ENE 01:01:58 11° ENE 01:01:58 11° ENE visible
12 May 11.5 02:38:45 10° N 02:42:32 43° NNW 02:42:32 43° NNW visible
13 May 11.7 02:06:59 10° NNE 02:10:31 43° NNE 02:10:31 43° NNE visible
13 May 12.7 03:48:53 10° NW 03:51:00 12° WNW 03:51:05 12° WNW visible
14 May 12.5 01:35:45 10° NNE 01:38:29 25° ENE 01:38:29 25° ENE visible
14 May 12.1 03:15:23 10° NNW 03:19:03 24° WNW 03:19:03 24° WNW visible
